Back to catalog

ONEWEB-0669

AliveCommunicationsPO
NORAD 55828·PAYLOAD·🇬🇧 United Kingdom

Launched Mar 9, 2023 from Cape Canaveral Space Force Station

Loading…

Next Passes (next 24 hours)

TLE

FreshSource: CelesTrak SupGP

Epoch: Sep 14, 2026, 15:59 UTC

1 55828C 23029AJ  26257.66647407 -.00002859  00000+0 -70390-2 0  2579
2 55828  87.9136 256.5915 0002335 101.8117  10.4688 13.20774223    18

Track ONEWEB-0669 in real time with AllMySat

Download on the App Store